P/2015 M2 ( PanSTARRS )

Japanese version
Home page
Updated on November 20, 2016

---------------------------------------------------------------------

* Profile

Discovery Date June 28, 2015
Magnitude 20.0 mag
Discoverer Pan-STARRS 1 telescope (Haleakala)

* Pictures

* Orbital Elements

Epoch 2015 Sept. 15.0 TT = JDT 2457280.5
T 2015 Aug. 31.64870 TT                                 MPCW
q   5.9128160            (2000.0)            P               Q
n   0.05099791     Peri.  224.82114     +0.66010496     +0.74798060
a   7.2016906      Node    86.61592     -0.66829650     +0.62683343
e   0.1789683      Incl.    3.97407     -0.34298866     +0.21818539
P  19.33
From 107 observations 2015 June 22-2016 Aug. 3, mean residual 0".4.

* Magnitudes Graph

        m1 = 8.0 + 5 log d + 10.0 log r

---------------------------------------------------------------------

The orbital elements are published on M.P.E.C. 2016-Q04.
The magnitudes graphs are made with Comet for Windows.

---------------------------------------------------------------------

Copyright(C) Seiichi Yoshida (comet@aerith.net). All rights reserved.